Regional Weather Roundup
Issued by NWS

Home | Current Version | Previous Version | Text Only | Print | Product List | Glossary On
Versions: 1 2 3 4 5 6 7 8 9 10 11 12 13 14 15 16 17 18 19 20 21 22 23 24 25 26 27 28 29 30 31 32 33 34 35 36 37 38 39 40 41 42 43 44 45 46 47 48 49 50
263
ASUS44 KLIX 192110
RWRLA
LOUISIANA WEATHER ROUNDUP
NATIONAL WEATHER SERVICE NEW ORLEANS LA
400 PM CDT SUN OCT 19 2014

NOTE: "FAIR" INDICATES FEW OR NO CLOUDS BELOW 12,000 FEET WITH NO
      SIGNIFICANT WEATHER AND/OR OBSTRUCTIONS TO VISIBILITY.
      SKY/WX - SKY CONDITION AND SIGNIFICANT WEATHER.
      TMP - AIR TEMPERATURE.    DP   - DEWPOINT TEMPERATURE.
      RH  - RELATIVE HUMIDITY.  PRES - PRESSURE.
      HX  - HEAT INDEX.         WCI  - WIND CHILL INDEX.

*  THESE STATIONS ARE NOT NWS OR FAA STATIONS AND ARE NOT UNDER
   NWS QUALITY CONTROL.

LAZ040-048-061>063-065-066-069-192200-
SOUTHEAST LOUISIANA

CITY           SKY/WX    TMP DP  RH WIND       PRES   REMARKS
N.O. AUDUBON     N/A     76  61  59 MISG        N/A
N.O. INTL ARPT MOSUNNY   76  56  49 NE10      30.05F
N.O. LAKEFRONT SUNNY     75  55  49 E5        30.06F
N.O. DOWNTOWN* FAIR      73  54  49 E3        30.06F
SLIDELL        SUNNY     77  54  44 NE6       30.05F
BATON ROUGE    SUNNY     77  52  41 NE6       30.05F
BOOTHVILLE     SUNNY     75  65  70 NE12      30.05S
BELLE CHASSE   MOSUNNY   75  57  53 E8        30.04F
BOGALUSA*        N/A     77  46  33 N5        30.07F
NEW ROADS*     FAIR      75  53  45 N3        30.06S
GONZALES*      FAIR      76  56  50 E5        30.04F
HAMMOND*       SUNNY     79  50  36 CALM      30.07S
HOUMA*         NOT AVBL
PORT FOURCHON* PTCLDY    77  64  65 E12       30.06F

$$

LAZ041-044-053-054-192200-
SOUTHWEST LOUISIANA

CITY           SKY/WX    TMP DP  RH WIND       PRES   REMARKS
LAKE CHARLES   SUNNY     79  58  48 NE6       30.04F
LAFAYETTE      SUNNY     78  57  48 E7        30.04F
PATTERSON      NOT AVBL
SALT POINT       N/A     79  62  56 CALM      30.02F
NEW IBERIA     SUNNY     80  59  48 NE7       30.04F
CHENAULT AIRPK NOT AVBL

$$

LAZ027-028-192200-
CENTRAL LOUISIANA

CITY           SKY/WX    TMP DP  RH WIND       PRES   REMARKS
FORT POLK      SUNNY     74  54  49 E6        30.06F
ALEXANDRIA INT SUNNY     75  50  41 NE6       30.06F
ALEXANDRIA     SUNNY     76  51  41 NE5       30.07F

$$

LAZ001-002-192200-
NORTHWEST LOUISIANA

CITY           SKY/WX    TMP DP  RH WIND       PRES   REMARKS
SHREVEPORT     SUNNY     74  48  39 E3        30.08F
BARKSDALE AFB  SUNNY     74  48  39 VRB5      30.09F
DTN SHREVEPORT SUNNY     72  48  42 E5        30.09F

$$

LAZ014-016-192200-
NORTHEAST LOUISIANA

CITY           SKY/WX    TMP DP  RH WIND       PRES   REMARKS
MONROE         SUNNY     71  47  42 NE8       30.11F
TALLULAH       SUNNY     73  44  35 NE6       30.09F

$$




USA.gov is the U.S. government's official web portal to all federal, state and local government web resources and services.